Location: ????????
(54.8751°N, 38.5756°E)
Time: 06:23:28
(UTC+00:00)

Cosmos 2221 - Visible Passes

Search period start: 13 July 2024 00:00
Search period end: 23 July 2024 00:00
Orbit: 580 x 604 km, 82.5° (Epoch: 12 July)

Date Brightness Start Highest point End Pass type
(mag) Time Alt. Az. Time Alt. Az. Time Alt. Az.
13 Jul 3.0 21:45:42 10° N 21:49:51 52° ENE 21:53:13 15° SSE visible
13 Jul 4.0 23:23:36 10° NW 23:26:51 22° W 23:29:47 11° SW visible
14 Jul 5.0 20:18:39 10° NNE 20:20:34 13° NE 20:22:30 10° E visible
14 Jul 2.6 21:54:27 10° N 21:58:41 74° ENE 22:01:46 18° SSE visible
14 Jul 4.4 23:32:53 10° NW 23:35:28 16° W 23:38:03 10° WSW visible
15 Jul 4.8 20:26:50 10° NNE 20:29:37 17° ENE 20:32:23 10° E visible
15 Jul 2.4 22:03:14 10° NNW 22:07:29 79° W 22:10:18 21° S visible
15 Jul 4.7 23:42:36 10° WNW 23:44:02 12° W 23:45:28 10° W visible
16 Jul 4.4 20:35:15 10° NNE 20:38:36 22° ENE 20:41:56 10° ESE visible
16 Jul 2.7 22:12:05 10° NNW 22:16:15 56° W 22:18:51 21° SSW visible
17 Jul 4.0 20:43:48 10° N 20:47:32 29° ENE 20:50:50 12° SE visible
17 Jul 3.2 22:20:59 10° NNW 22:24:57 39° W 22:27:25 20° SSW visible
18 Jul 3.5 20:52:24 10° N 20:56:25 39° ENE 20:59:25 16° SE visible
18 Jul 3.7 22:29:57 10° NNW 22:33:37 29° W 22:35:59 17° SW visible
19 Jul 2.9 21:01:05 10° N 21:05:17 54° ENE 21:07:59 21° SE visible
19 Jul 4.2 22:39:02 10° NW 22:42:14 21° W 22:44:34 14° SW visible
20 Jul 4.9 19:33:55 10° NNE 19:35:59 13° NE 19:38:03 10° E visible
20 Jul 2.5 21:09:48 10° N 21:14:04 77° ENE 21:16:34 24° SSE visible
20 Jul 4.6 22:48:17 10° NW 22:50:49 16° W 22:53:09 11° WSW visible
21 Jul 4.6 19:42:07 10° NNE 19:44:59 17° ENE 19:47:51 10° ESE visible
21 Jul 2.5 21:18:34 10° NNW 21:22:50 77° W 21:25:10 26° S visible
21 Jul 4.8 22:58:03 10° WNW 22:59:21 11° W 23:00:40 10° W visible
22 Jul 4.2 19:50:31 10° N 19:53:56 23° ENE 19:57:11 11° ESE visible
22 Jul 2.8 21:27:22 10° NNW 21:31:33 54° W 21:33:46 26° SSW visible
